Location: Arcones
(41.1182°N, 3.7238°W)
Time: 00:09:24
(UTC+00:00)

IRIDIUM 106 - Pass Details

Date: 19 March 2026
Orbit: 776 x 780 km, 86.4° (Epoch: 13 April)

Event Time Altitude Azimuth Distance (km) Brightness Sun altitude
Exits shadow 22:33:54 13° 294° (WNW) 2,155 7.1 -42.3°
Drops below altitude 10° 22:35:38 10° 314° (NW) 2,337 7.4 -42.5°
Sets 22:39:28 0° 342° (NNW) 3,270 8.3 -43.0°
